STARLINK-34515, 64712

Orbit data source: Space-Track

STARLINK-34515, 64712 is a payload satellite owned by SpaceX/Seattle (US) in LEO that was launched on Sat, 28 Jun 2025 UTC via an FALCON 9 launch vehicle from the Air Force Western Test Range (AFWTR). Payload-class satellites include a variety of spacecraft equipped with specific instruments for various scientific and technological missions. These include communications satellites like Starlink; space stations such as the ISS; scientific satellites like the Hubble; Earth observation satellites from companies like Planet Labs, Umbra, and HawkEye 360; GPS; miniature CubeSats for education and research; and military/defense satellites.

Loading next visibility...
Identifier
64712, 2025-142S
Orbit
LEO
Country
Flag of USUS
Related business
Manufacturer
SpaceX/Seattle
Mission
Operational Commercial Communications
Bus & Motor
STARLINK V2MO, Unknown motor
Mass
575 kg wet, ~530 kg dry
Launch date (UTC)
2025-06-28 (1 year ago)
Launch vehicle
FALCON 9
Launch site
Air Force Western Test Range (AFWTR)
Object type
Payload
Rocket body
Debris
Shape & HBR
Box + 1 Pan, 17.7 m
Radar Cross Section
41.120 m², Large (>1 m²)

Expand to show TLE details & history
Last TLE update: 1 day ago

TLE from 1 day ago
0 STARLINK-34515
1 64712U 25142S   26263.47656669  .00009332  00000-0  32855-3 0  9995
2 64712  70.0017 181.0852 0002730 272.7849  87.3014 15.29592463 68691
Epoch: 2026-09-20T11:26Z
TLE epoch observation values (Epoch: 2026-09-20T11:26:15.362Z)
Latitude
0.00004°
Longitude
10.15101°
Altitude
479.4 km
Speed
7.626 km/s
True Right ascension
12h 04m 20s
True Declination
0° 00' 00"
Sunlit
Object was in daylight at epoch
Visualization orbit readout
Latitude
Unknown
Longitude
Unknown
Altitude
Unknown
Speed
Unknown
Apparent Right ascension
Unknown
Apparent Declination
Unknown
Sunlit
N/A
Visualization observer readout
Local Sidereal Time
09:57:21
Azimuth
Unknown
Elevation
Unknown
Doppler factor
Unknown
Orbital elements
Apogee altitude
476.82 km
Perigee altitude
473.078 km
Semi-major axis
6,853.086 km
Eccentricity
0.00027
Inclination
70.0017°
RAAN
181.0852°
Arg. of periapsis
272.7849°
True anomaly
87.33265°
Mean anomaly
87.3014°
Eccentric anomaly
87.31702°
Mean motion
3.82573 °/min
Orbital period
94.1 mins
BSTAR
0.00032855
Loading maneuver chart data...
Computing Atmospheric mass density...
Loading historical data...
Loading historical data...
Loading historical data...
Loading historical data...
Loading historical data...
Loading historical data...
Loading historical data...

Documentation

Showing up to 5 results
|